Location: PSU-Greenbush Astrophysical Observatory
(37.5140°N, 94.9880°W)
Time: 09:51:02
(UTC-05:00)

CUTE 1.7 + AOD 2 - Pass Details

Date: 01 March 2020
Orbit: 593 x 612 km, 97.6° (Epoch: 08 April)

Event Time Altitude Azimuth Distance (km) Brightness Sun altitude
Rises 04:58:36 0° 23° (NNE) 2,838 ? -23.0°
Reaches altitude 10° 05:00:58 10° 33° (NNE) 1,931 ? -22.5°
Maximum altitude 05:04:43 32° 97° (E) 1,034 ? -21.8°
Drops below altitude 10° 05:08:27 10° 161° (SSE) 1,919 ? -21.0°
Sets 05:10:47 0° 171° (S) 2,817 ? -20.6°
